Regional Weather Roundup
Issued by NWS Jackson, KY

Home | Current Version | Previous Version | Text Only | Print | Product List | Glossary Off
Versions: 1 2 3 4 5 6 7 8 9 10 11 12 13 14 15 16 17 18 19 20 21 22 23 24 25 26 27 28 29 30 31 32 33 34 35 36 37 38 39 40 41 42 43 44 45 46 47 48 49 50

627
ASUS43 KJKL 140110
RWRJKL

EAST KENTUCKY HOURLY WEATHER ROUNDUP
NATIONAL WEATHER SERVICE JACKSON KY
800 PM EST WED DEC 13 2017

NOTE: "FAIR" INDICATES FEW OR NO CLOUDS BELOW 12,000 FEET WITH
NO SIGNIFICANT WEATHER AND/OR OBSTRUCTIONS TO VISIBILITY.

* THESE REPORTS ARE NOT UNDER NWS QUALITY CONTROL AND MAY NOT
  REPORT WEATHER SUCH AS PRECIPITATION AND FOG.

KYZ079-080-083-085-087-088-110-112-115-119-120-140200
...EASTERN KENTUCKY...

CITY           SKY/WX    TMP DP  RH WIND       PRES   REMARKS
JACKSON        CLOUDY    40  11  30 SW9G22    29.61R WCI  34
LONDON         CLOUDY    41  12  30 SW10G18   29.67R
SOMERSET*      CLOUDY    43  16  33 W13G24    29.70R
MONTICELLO*    PTCLDY    43  18  36 SW22G30   29.71R
WILLIAMSBURG*  CLEAR     39  12  33 SW8G20    29.69R WCI  34
MIDDLESBORO*   CLEAR     35  14  42 CALM      29.71S
HARLAN APT*    CLEAR     37  10  32 W5        29.68R WCI  34
PIKE CO APT*   MOCLDY    41  11  29 SW9G18    29.58S
BIG SANDY APT* CLOUDY    42   9  26 SW22G28   29.57F
MOREHEAD APT*  CLOUDY    43  12  28 SW22G35   29.57R
$$

KYZ035-036-041-042-044-050-067-078-099-140200
...CENTRAL KENTUCKY...

CITY           SKY/WX    TMP DP  RH WIND       PRES   REMARKS
MT STERLING*   CLOUDY    43  18  36 W18G31    29.58S
FLEMING/MASON* CLOUDY    40  20  43 SW23G33   29.52F WCI  30
DANVILLE*      CLOUDY    43  19  39 SW20G33   29.62F
LEXINGTON      CLOUDY    44  18  35 SW23G36   29.56S
FRANKFORT      CLOUDY    45  17  32 SW20G29   29.54F
LOUISVILLE     CLOUDY    49  24  37 SW20G28   29.57R
LEBANON*         N/A     43  18  36 S20       29.62S
GLASGOW*       PTCLDY    44  19  37 SW14      29.68S
BOWLING GREEN  CLOUDY    46  21  37 SW13      29.70R
$$

KYZ091>093-OHZ055-061-077-WVZ005-015-034-035-042-140200
...SOUTHERN OHIO/WEST VIRGINIA...

CITY           SKY/WX    TMP DP  RH WIND       PRES   REMARKS
COVINGTON      CLOUDY    43  22  43 SW15G26   29.44F
COLUMBUS       CLOUDY    31  17  56 SE10      29.43F WCI  22
DAYTON         CLOUDY    36  25  64 SW14      29.39F WCI  27
WILMINGTON     CLOUDY    37  19  48 SW16      29.40F WCI  28
HUNTINGTON     CLOUDY    40  11  30 SW9G18    29.54R WCI  34
CHARLESTON     CLOUDY    37  14  38 SW7       29.53S WCI  32
PINEVILLE*       N/A     31  21  67 MISG      29.64S
BECKLEY        CLEAR     34  12  40 SW13      29.54R WCI  25
BLUEFIELD      CLEAR     35  10  35 W15G28    29.58R WCI  25
LOGAN CO APT*  CLOUDY    39  10  30 SW16G24   29.55S WCI  30
$$

VAZ002-007-008-TNZ017-027-036-066-071-140200
...SOUTHWEST VIRGINIA/EAST TENNESSEE...

CITY           SKY/WX    TMP DP  RH WIND       PRES   REMARKS
WISE*          CLEAR     36  10  35 SW25G36   29.62S WCI  23
JONESVILLE*      N/A     39  12  33 SW14      29.73R WCI  31
ABINGDON*      CLEAR     34  13  42 W8        29.68R WCI  27
BRISTOL        CLEAR     30  16  56 SW6       29.70R WCI  24
MORRISTOWN*    CLOUDY    43  10  26 W15G21    29.73R
SEVIERVILLE*   CLOUDY    43   9  24 NW6       29.74R
KNOXVILLE      PTCLDY    41  17  38 SW14      29.76R
LAFOLLETTE*    PTCLDY    41  14  33 VRB7      29.76R
OAK RIDGE      CLEAR     41  15  35 W5        29.78R
CROSSVILLE     CLEAR     37  13  37 VRB7      29.74R WCI  32
NASHVILLE      CLEAR     47  20  34 SW9       29.76S
$$

...KEY TO REMARKS...
VSB - VISIBILITY IN MILES
WCI - WIND CHILL INDEX
HX  - HEAT INDEX

$$




USA.gov is the U.S. government's official web portal to all federal, state and local government web resources and services.